Theta_e
322 323 324 326 328 328 332 331 337 339 335 341 338 337 336 329 326 324 329 330 325 326 324 322 320 320 320 323 325 325 325 330 336 330 331 322 306 308 311 310 310 310 310 310 309 311 313 312 311 308 307 304 304 310 314 315 313 314 313 312 312 312 312 312 311 311 311 310 310 310 309 309 309 309 309 308 308 308 308 307 308 308 309 309 309 308 308 308 308 308 307 307 307 307 307 306 306
323 324 325 326 326 328 334 331 340 340 335 340 336 338 335 325 326 330 336 336 329 321 319 321 318 317 317 318 317 318 323 323 324 322 317 308 306 310 310 310 309 310 310 310 310 311 312 311 310 307 305 301 304 312 314 314 314 314 312 311 312 312 312 311 311 311 311 310 310 310 309 309 309 309 309 308 308 308 307 307 307 307 308 308 308 308 308 308 307 307 307 306 306 306 306 306 306
323 326 326 326 325 329 337 334 341 340 337 340 336 338 330 328 333 336 337 333 329 318 317 319 316 317 316 319 317 318 326 321 315 316 312 304 309 312 310 310 308 310 310 310 310 310 311 310 308 307 303 301 305 312 314 314 314 313 312 311 312 312 312 311 311 311 311 310 310 310 309 309 309 308 308 308 308 307 307 306 306 307 308 308 308 308 307 307 307 307 306 306 306 306 306 306 305
323 326 324 327 328 332 341 336 340 341 338 339 339 339 334 337 337 337 335 325 322 316 315 316 317 317 314 322 319 316 324 322 313 315 313 306 311 313 310 309 308 310 310 310 310 309 310 308 307 304 301 302 306 311 313 313 313 313 311 311 312 312 312 311 311 311 311 311 310 309 309 309 309 309 308 307 307 306 306 306 306 307 307 308 308 307 307 307 307 307 307 306 306 306 305 305 305
321 323 320 326 332 333 337 331 334 338 337 339 341 340 339 341 338 338 334 322 318 317 315 316 321 315 311 319 318 319 327 321 311 309 309 308 310 311 309 308 309 310 309 309 309 309 309 307 305 302 301 304 306 307 309 312 313 312 311 311 312 312 312 311 311 311 310 310 310 310 309 309 309 309 308 307 306 306 306 306 305 306 307 307 307 307 306 306 306 307 307 306 306 305 305 305 304
321 321 320 321 324 327 332 332 334 335 334 336 337 338 337 336 332 331 331 324 317 317 315 314 317 312 312 316 315 319 320 314 310 308 307 309 310 311 309 307 309 309 309 309 308 308 307 306 303 302 304 305 304 302 304 310 312 311 311 311 311 312 312 311 312 311 310 310 310 310 309 309 309 308 308 307 306 305 305 305 305 306 306 307 306 306 306 306 306 306 306 306 306 305 305 304 303
318 320 326 326 324 326 331 334 334 334 332 330 331 333 334 333 326 323 326 322 317 316 313 313 314 311 317 313 311 314 310 309 310 310 309 309 310 310 309 307 309 309 308 308 307 307 306 304 303 305 305 303 302 301 303 306 311 311 311 311 311 312 312 312 312 312 311 310 310 309 309 309 308 307 307 306 305 305 305 305 305 305 306 306 306 305 305 305 306 306 306 306 306 305 304 304 303
318 320 326 332 331 327 331 332 331 332 330 327 328 328 329 330 323 321 324 321 318 317 312 316 314 313 321 312 313 314 306 309 310 308 309 309 309 310 309 307 308 308 308 308 307 305 304 302 303 307 303 301 303 302 302 303 308 311 311 311 311 312 312 312 312 312 311 311 310 310 309 308 308 307 306 306 305 304 304 304 304 305 305 306 305 305 305 304 305 305 305 305 305 305 304 303 302
315 318 323 330 329 327 330 329 327 327 328 328 327 327 327 326 322 319 323 322 318 318 314 318 316 315 321 314 318 316 306 309 309 309 309 308 309 309 309 307 308 307 307 307 306 304 303 301 303 307 303 302 304 303 302 302 307 311 312 311 311 312 312 312 312 312 311 311 311 310 309 308 307 306 306 306 304 304 302 303 304 305 305 305 305 304 304 303 303 304 304 305 305 304 303 303 301
315 318 323 327 326 327 329 326 325 325 327 326 322 323 321 321 322 319 321 321 317 317 315 314 313 313 316 315 319 316 310 310 308 309 309 308 308 308 309 308 308 307 307 306 305 303 303 301 302 306 304 305 306 304 304 303 306 311 312 311 312 312 312 312 311 312 311 311 310 309 308 307 306 306 306 305 305 304 302 303 303 304 304 304 304 304 304 303 303 303 303 304 304 303 303 302 300
322 324 324 324 324 327 329 327 324 323 324 320 319 321 319 316 318 318 319 319 317 316 314 311 314 314 311 316 321 314 309 309 308 310 309 308 307 308 308 307 307 307 307 306 304 303 303 301 301 303 305 307 307 305 306 305 306 311 313 311 312 312 312 312 311 311 310 311 310 309 308 307 306 306 306 305 305 304 303 303 303 303 303 303 303 303 303 303 303 303 303 303 303 302 302 300 298
321 327 329 325 325 326 327 326 323 322 319 316 318 320 317 315 316 321 322 320 319 317 317 313 315 316 314 322 324 312 306 308 309 309 310 308 307 308 308 308 307 307 306 305 304 303 302 301 300 301 305 308 307 306 306 306 306 310 312 311 312 312 311 311 311 311 310 310 309 309 308 307 306 305 306 305 305 304 303 303 302 303 303 303 302 302 303 302 302 302 302 302 302 301 300 298 296
322 327 329 324 325 327 323 322 322 321 318 316 317 316 311 317 321 323 322 320 318 317 321 316 313 313 315 323 319 311 308 309 310 309 309 308 307 307 307 308 307 307 306 304 304 303 302 301 300 299 304 308 307 305 305 306 306 307 309 310 311 311 311 311 310 310 310 310 309 308 307 306 305 305 305 305 305 304 303 303 302 302 302 303 302 301 302 301 301 301 301 301 300 300 298 296 295
319 327 326 318 319 322 319 317 319 316 314 316 318 318 312 317 323 320 317 319 320 318 316 311 311 312 313 316 315 316 313 307 309 309 308 307 306 306 306 307 307 306 305 304 304 303 302 301 300 298 301 306 306 303 302 303 304 305 305 307 310 311 311 310 310 310 310 309 308 308 307 306 305 305 305 304 305 304 303 302 302 302 302 303 302 300 301 301 300 300 300 300 299 298 296 295 294
313 328 325 315 315 316 314 314 315 311 310 312 315 318 317 318 317 316 316 316 319 315 309 307 308 312 313 314 316 316 309 306 309 308 307 305 304 304 305 305 306 305 304 304 303 303 303 301 301 299 299 301 303 302 300 300 301 302 301 302 306 309 310 310 310 309 309 309 309 308 307 305 305 305 304 304 304 304 302 301 301 301 301 302 302 300 300 300 299 300 299 299 298 297 295 293 292
317 328 321 314 316 313 312 313 313 310 313 316 313 311 317 321 314 314 316 313 315 312 309 311 308 309 313 314 314 308 304 307 308 308 306 304 302 303 303 303 304 304 304 303 303 303 303 302 301 299 299 298 300 299 298 299 299 299 299 299 301 305 307 309 310 309 309 309 308 307 306 305 304 304 303 303 303 304 301 298 298 301 301 301 301 300 300 299 299 299 298 297 296 294 293 291 289
317 322 317 314 317 313 312 313 313 310 315 322 318 313 317 320 313 311 311 309 313 312 311 313 309 309 311 311 309 304 305 307 306 306 304 302 302 301 301 302 302 302 303 303 303 303 303 302 301 300 299 298 298 298 297 297 298 299 299 299 298 299 302 305 308 309 308 308 308 306 305 304 304 303 301 301 302 303 302 296 294 299 301 300 300 300 299 298 298 298 297 296 294 292 291 290 288
312 316 313 314 316 315 316 318 316 311 311 317 316 316 316 315 314 312 309 310 313 313 312 311 310 310 308 307 306 304 306 306 306 305 303 301 301 301 301 301 301 301 302 303 303 303 303 302 302 301 300 298 298 297 297 297 297 297 298 298 297 297 298 301 304 307 308 307 307 306 304 304 303 302 298 298 299 301 301 296 292 296 300 300 300 299 297 297 297 297 296 294 293 291 290 288 286
318 317 311 319 322 316 317 318 316 312 310 313 312 314 314 313 313 310 309 313 313 313 313 310 312 312 308 307 306 305 305 305 306 304 302 301 300 300 300 300 301 301 301 302 303 303 303 303 302 301 300 299 298 298 298 297 296 296 296 297 297 296 297 298 300 303 305 306 307 306 304 303 303 301 297 294 296 297 298 296 291 292 299 300 298 297 295 295 296 295 294 292 291 289 288 286 285
318 315 313 326 322 315 315 315 314 312 310 311 312 312 313 313 311 309 310 314 312 312 312 311 315 315 312 310 307 305 304 304 304 304 302 301 301 301 301 301 300 301 302 303 303 303 303 303 302 302 301 300 299 298 298 298 297 296 296 296 296 296 296 297 298 300 302 304 306 305 304 303 302 301 297 292 293 294 293 294 291 290 296 299 297 295 293 293 293 292 291 290 289 287 286 285 285
312 312 320 325 313 312 315 314 314 313 310 309 311 311 310 310 309 309 310 312 312 311 311 312 314 313 312 311 308 303 302 303 301 302 302 301 302 302 302 302 302 303 303 302 302 303 303 303 302 302 302 301 300 299 299 299 298 297 296 296 296 296 295 295 296 297 298 301 303 304 303 303 302 301 297 291 291 292 291 292 290 288 293 296 294 292 291 291 290 289 288 287 287 286 285 285 285
310 316 322 318 309 309 312 314 314 312 310 310 311 310 309 308 308 312 312 312 312 311 311 312 313 312 310 309 307 305 306 307 303 302 302 302 302 302 302 303 303 303 302 302 303 304 304 303 303 302 302 302 301 300 300 299 299 299 298 297 296 295 295 295 295 295 296 297 299 301 302 302 301 301 297 291 289 290 290 290 288 287 290 292 292 291 290 288 287 286 286 286 286 285 285 285 285
311 319 318 315 311 309 312 314 313 311 309 310 310 308 308 308 309 312 312 312 311 310 311 311 312 309 305 306 306 307 310 310 306 304 301 302 302 302 303 303 303 303 302 303 304 304 303 303 303 303 302 302 302 302 300 300 299 300 300 299 297 296 295 294 294 294 294 295 296 297 299 300 300 301 298 292 288 289 289 289 288 287 288 289 289 288 287 286 286 286 285 285 285 285 285 285 285
310 319 320 316 312 310 312 310 310 310 308 308 307 306 307 309 309 308 309 310 309 309 309 309 308 305 304 307 308 308 308 308 305 302 302 302 303 304 304 304 304 303 303 303 304 303 302 303 303 302 302 302 302 302 301 300 300 299 300 300 299 299 297 296 295 294 294 294 294 295 296 298 298 299 298 292 288 288 289 288 287 287 288 288 287 287 286 286 285 286 285 285 285 285 285 285 285
313 317 321 317 313 313 312 310 313 313 309 305 303 306 308 307 307 307 309 309 307 306 306 307 306 306 307 308 308 307 307 306 303 301 302 303 303 304 304 304 303 303 303 304 303 302 303 303 302 302 303 302 302 302 301 301 300 300 299 300 300 300 299 299 298 296 294 293 293 293 294 295 296 297 297 293 288 288 288 288 287 287 288 288 287 286 286 285 285 285 285 285 285 285 285 285 285
316 316 318 316 313 313 310 311 316 314 308 305 304 310 310 306 305 308 311 310 308 307 307 307 306 306 306 305 305 306 307 306 303 302 302 302 302 302 303 303 303 303 304 304 303 303 304 302 302 303 303 302 302 301 302 301 301 300 299 300 300 300 300 300 299 298 297 295 294 293 292 293 294 294 295 293 289 287 288 288 287 287 287 287 287 286 286 285 285 285 285 285 285 285 284 284 284
315 315 315 315 312 311 311 312 313 310 308 307 307 309 309 305 305 310 314 310 308 308 307 306 305 305 304 303 303 303 306 305 303 302 302 302 302 302 302 303 303 303 304 303 303 304 303 302 303 303 302 302 301 301 302 301 301 300 300 300 299 300 301 300 300 299 299 298 296 294 292 292 292 292 293 293 290 287 288 288 287 287 287 287 287 286 286 285 285 285 284 284 284 284 284 284 284
312 312 313 316 312 308 309 310 309 307 309 308 305 307 306 304 306 313 314 308 306 307 307 305 304 304 303 303 303 302 303 301 300 301 302 302 302 302 302 302 303 303 303 303 304 304 303 303 303 303 302 301 301 301 301 301 301 300 300 300 300 299 300 300 300 300 300 299 298 296 294 293 292 291 292 292 290 288 287 287 287 287 287 286 286 286 286 285 284 284 284 284 284 284 284 284 283
311 311 312 318 315 310 307 307 308 306 308 310 307 310 309 307 312 315 311 308 306 305 306 304 303 303 303 303 302 303 302 299 299 300 300 302 302 303 303 303 304 303 303 304 303 303 303 303 303 303 302 301 301 302 301 301 301 300 300 300 300 300 299 299 300 300 300 300 299 298 297 295 293 292 291 291 290 288 288 287 287 287 286 286 286 286 285 285 284 284 284 284 284 283 284 283 283
311 307 311 319 316 313 307 304 310 307 307 311 308 313 314 311 312 309 308 308 306 306 305 303 302 302 302 302 302 303 302 301 301 300 300 302 302 303 303 304 304 304 304 304 303 303 303 303 303 302 302 302 302 302 301 301 301 300 300 300 300 299 299 299 299 299 300 299 299 298 298 296 295 294 293 292 290 289 288 287 287 287 286 286 286 286 285 285 284 283 284 283 284 283 283 283 283
312 309 315 317 312 315 311 305 312 309 308 311 307 312 316 310 310 307 307 307 304 305 305 302 302 302 302 302 302 303 303 301 300 300 301 301 302 302 303 304 304 304 304 304 304 304 304 303 303 303 302 302 302 302 301 301 301 300 300 300 299 299 299 299 299 299 299 299 299 298 298 297 296 295 294 293 291 289 289 288 287 287 286 286 285 285 285 285 283 283 283 283 283 283 283 283 283
316 313 319 318 311 314 312 307 311 309 308 312 308 313 316 311 310 308 305 304 303 304 304 302 302 303 304 303 303 304 304 302 300 301 302 301 302 302 302 303 303 304 304 304 304 304 304 304 303 303 303 302 302 302 302 302 301 300 300 299 299 299 299 298 299 299 298 298 298 298 298 297 296 295 294 294 291 290 289 289 288 287 287 286 285 285 285 285 283 283 283 283 283 283 283 283 282
317 312 315 318 313 313 310 307 309 307 307 311 310 310 313 311 309 307 303 302 302 303 303 301 302 302 302 301 301 301 301 301 300 299 300 300 300 301 301 302 302 303 304 304 304 304 304 303 303 303 303 303 302 302 302 301 301 300 300 299 299 299 298 299 299 298 298 298 297 297 297 297 296 295 295 294 292 291 290 289 289 288 287 286 285 285 284 284 283 283 283 283 283 283 283 283 282
318 314 314 316 312 311 311 308 308 307 307 309 310 308 310 310 306 304 303 302 302 302 301 300 300 299 298 298 298 297 297 298 297 297 297 297 298 299 299 300 301 302 303 304 304 304 304 304 303 303 303 303 302 302 301 301 300 300 299 299 299 298 298 299 298 298 297 297 297 297 297 296 295 295 295 294 293 291 291 290 289 288 288 286 285 285 284 284 283 283 283 283 283 283 283 282 282
313 314 313 315 311 309 311 309 308 307 307 306 307 309 309 307 304 304 303 301 300 299 298 298 297 296 296 296 295 295 295 295 295 295 296 296 296 297 297 298 299 300 300 301 302 303 304 304 303 303 303 303 302 302 301 301 300 299 299 299 298 298 298 298 297 297 297 296 296 296 296 295 295 294 294 294 293 292 291 290 289 288 288 287 286 285 284 284 283 283 282 283 283 283 282 282 281
310 310 310 312 312 311 308 309 310 305 306 309 309 308 308 306 305 304 302 298 296 296 296 296 295 295 295 295 294 294 294 294 294 295 295 295 295 295 296 296 296 297 297 298 299 301 301 302 302 302 302 302 302 302 301 300 300 299 298 298 297 298 297 297 296 296 296 296 296 295 295 295 294 294 294 294 293 292 291 290 289 288 288 287 286 285 284 284 283 283 282 283 282 282 282 281 281
308 309 310 311 310 310 306 306 308 305 308 314 311 308 308 307 305 302 298 296 295 295 295 294 294 294 294 294 294 293 293 294 294 294 294 294 294 294 295 295 295 295 295 295 296 297 298 299 300 300 300 300 301 301 301 300 299 299 298 298 298 298 297 296 296 296 295 295 295 295 294 294 294 293 293 293 292 292 291 290 289 288 288 287 286 286 285 284 283 283 282 282 282 282 282 281 281
309 311 312 313 309 307 304 303 306 304 306 310 308 307 308 305 302 299 296 296 295 295 294 294 294 294 293 293 293 293 293 293 293 293 293 293 294 294 294 294 294 294 294 295 295 295 296 296 297 299 299 299 299 299 299 299 299 298 298 298 298 298 297 296 296 296 295 295 294 294 294 293 293 293 293 293 292 292 291 290 289 289 288 287 286 286 285 284 283 283 282 282 282 282 281 281 281
310 310 310 310 307 306 306 306 306 303 304 310 308 307 308 303 298 297 296 295 295 295 294 294 294 293 293 293 292 293 292 292 292 292 292 293 293 293 293 293 293 294 294 294 294 294 295 295 295 296 297 298 298 298 298 298 297 297 297 297 297 296 296 296 296 296 295 295 294 293 293 293 293 292 292 292 292 292 291 291 290 289 288 287 286 285 285 284 283 282 282 282 282 281 281 281 280
307 306 307 308 306 305 306 307 307 304 303 308 308 308 310 303 297 296 296 296 295 294 294 293 293 293 293 293 292 292 292 292 292 291 291 292 292 292 292 292 292 293 293 293 293 293 294 294 294 295 295 296 296 297 297 297 297 297 297 296 296 295 295 295 295 295 294 294 293 293 293 293 292 292 292 291 291 291 291 291 290 289 288 287 287 285 285 284 283 283 282 282 281 281 280 280 280
306 306 308 307 306 304 305 304 304 304 303 303 307 311 311 301 296 297 296 295 295 294 293 293 293 293 292 292 292 292 292 292 291 291 291 291 291 292 292 292 292 292 292 292 292 292 293 293 293 294 294 294 295 295 296 296 296 296 296 296 295 295 294 294 293 293 293 292 292 293 294 293 292 291 291 291 291 291 291 290 289 288 288 287 286 285 285 285 284 283 282 282 281 281 281 280 279
307 309 308 304 304 304 304 303 304 307 307 305 305 310 313 303 296 297 297 295 295 294 293 293 292 292 292 292 292 292 292 291 291 291 290 290 291 291 291 291 291 291 291 291 291 291 292 292 292 292 293 293 294 294 295 295 295 295 295 295 294 293 293 293 293 293 293 292 293 294 293 293 292 291 291 291 291 290 290 290 289 288 287 287 286 285 285 285 284 284 282 282 281 282 281 280 279
308 308 305 303 304 304 304 304 305 308 307 304 303 306 311 308 299 296 297 295 294 294 293 292 292 291 292 292 291 291 291 291 291 291 290 290 290 290 290 291 291 291 291 291 291 291 291 291 291 291 292 292 293 293 294 294 294 294 294 294 293 293 292 293 293 293 293 293 293 292 292 292 292 291 291 290 290 290 289 289 288 288 287 286 286 285 285 285 285 284 283 282 282 281 281 280 279
307 306 303 304 305 303 303 303 305 308 305 303 306 305 307 311 303 296 297 295 294 294 293 292 291 291 291 291 291 291 291 291 291 291 290 290 290 290 290 290 290 290 290 290 291 290 291 291 290 291 291 291 291 291 293 293 293 293 293 293 293 293 292 293 293 293 293 293 292 292 291 291 291 291 290 290 290 290 289 288 288 288 287 286 285 285 285 285 285 284 283 282 282 281 281 281 280
309 307 303 304 303 303 304 306 310 309 303 303 309 304 304 311 304 295 296 295 293 294 293 292 291 290 291 291 291 290 290 290 290 291 290 289 289 289 289 290 290 290 290 290 290 290 290 290 290 290 290 290 291 290 291 292 293 292 292 292 292 292 292 292 293 292 293 292 292 292 291 291 291 290 290 290 289 289 288 288 288 287 286 286 285 285 285 284 284 284 283 282 281 281 281 281 280
307 305 303 304 305 303 304 308 312 310 305 306 310 303 301 307 303 295 295 294 293 293 292 291 291 290 290 291 290 290 290 290 290 290 290 289 289 289 289 290 290 290 290 290 290 290 290 290 290 290 290 290 290 290 290 290 291 292 292 292 291 292 292 292 292 292 292 292 292 292 291 291 290 290 290 290 289 288 288 287 287 287 286 286 285 285 284 284 284 284 284 283 282 281 281 281 280
306 305 304 305 305 304 305 307 307 306 306 310 311 305 301 303 302 295 294 294 293 293 292 291 290 289 290 290 290 290 289 289 290 290 290 290 290 290 290 290 290 290 290 290 290 290 290 290 290 290 290 290 290 290 291 290 291 291 291 291 291 291 291 291 291 291 292 291 291 291 291 291 290 290 289 289 289 288 287 287 286 286 286 285 285 284 284 284 284 284 284 283 282 282 281 280 280
305 306 304 303 303 305 310 312 308 303 303 306 309 305 301 302 301 295 294 294 293 292 291 290 290 289 289 290 290 290 289 289 289 290 290 290 290 290 290 290 290 289 289 289 290 290 290 290 290 290 290 290 290 290 291 291 291 291 291 291 291 291 291 291 291 291 291 291 291 291 291 290 290 289 288 288 288 288 287 286 286 286 285 285 284 284 284 284 284 284 283 283 282 282 281 280 280
304 305 306 306 307 306 306 307 306 304 302 302 304 302 301 301 297 295 295 293 292 291 291 290 290 289 289 289 289 290 290 289 289 289 289 289 289 290 290 290 289 289 289 289 289 290 290 290 290 290 290 290 290 290 290 291 291 291 291 291 291 291 291 291 291 291 291 291 291 291 290 290 289 289 288 288 288 288 288 287 286 285 285 285 285 284 284 284 283 283 283 283 282 281 281 280 280
303 305 305 307 308 304 302 303 303 303 302 300 299 300 302 301 295 294 294 291 291 292 290 290 290 289 289 289 289 290 290 289 289 289 289 289 289 289 290 289 289 289 289 288 289 289 289 290 290 290 290 290 290 291 290 291 291 291 291 291 291 291 291 291 291 290 291 291 291 291 290 290 289 289 289 289 288 288 287 287 286 285 285 285 284 284 284 283 283 283 283 283 282 282 281 280 280
303 304 304 306 306 303 303 306 304 302 301 300 299 301 305 302 296 294 293 290 290 290 290 290 290 289 289 289 289 290 290 290 290 289 289 289 289 289 289 289 289 288 288 287 288 288 289 289 290 290 290 290 290 290 290 291 291 291 291 291 291 291 291 291 291 291 291 291 291 290 290 290 289 289 289 289 288 288 287 286 286 285 285 285 284 283 283 283 283 283 283 282 282 282 281 280 279
303 303 305 306 306 304 305 307 304 301 302 303 302 302 301 296 293 291 292 291 289 289 289 289 289 289 289 289 289 290 289 289 289 289 289 288 288 289 289 289 289 288 287 287 287 288 288 289 289 289 290 290 290 290 290 290 290 291 291 291 291 291 291 291 291 291 291 291 291 290 290 290 290 289 289 289 288 287 286 286 285 285 285 284 284 283 283 282 282 282 282 281 281 281 280 279 279
303 302 302 302 302 303 305 306 304 301 302 304 304 301 297 293 292 290 290 290 289 289 289 289 290 289 289 289 289 289 289 289 289 289 288 288 288 288 288 289 288 287 287 287 287 287 288 288 288 289 289 289 290 290 290 290 290 290 290 291 291 291 291 291 291 291 291 291 291 291 291 290 290 290 289 288 288 287 286 285 285 285 284 284 284 283 283 282 282 282 281 281 281 280 280 279 279
303 302 301 301 302 304 305 304 304 304 303 302 302 301 298 298 297 291 290 291 290 289 290 289 289 289 289 289 289 289 289 289 288 288 288 287 287 287 288 288 288 287 286 286 287 287 287 288 288 288 289 289 289 289 289 290 290 290 290 290 290 291 291 291 291 291 291 291 290 291 291 290 290 290 289 288 287 287 286 285 285 284 284 284 283 283 283 282 282 281 281 281 280 280 279 279 278
301 302 301 300 301 304 303 301 301 302 301 300 300 299 299 302 300 293 291 291 290 289 290 289 289 288 288 288 288 288 288 288 288 288 288 287 287 287 287 288 288 287 286 286 286 287 287 287 287 288 288 288 288 289 289 289 289 289 290 290 290 290 290 291 291 291 291 290 290 290 291 291 291 290 289 288 287 286 286 285 284 284 284 283 283 283 283 282 282 281 280 280 280 279 279 278 278
299 301 300 298 299 299 300 300 299 299 300 300 299 299 299 298 295 292 291 291 290 289 289 289 288 287 287 287 287 287 287 287 287 287 287 287 287 287 287 287 287 287 287 286 286 287 286 287 287 287 287 288 288 288 288 289 289 289 289 289 289 290 290 290 290 290 290 290 290 290 290 291 290 290 289 288 287 286 285 285 284 284 283 283 283 283 282 282 281 280 280 279 279 279 279 278 277
300 302 299 298 298 298 297 298 298 299 299 299 299 299 299 295 291 291 292 291 289 289 289 288 287 286 286 286 286 287 286 287 287 287 287 287 286 287 287 287 287 286 286 286 286 286 286 286 287 287 287 287 287 288 288 288 288 288 289 289 289 289 289 290 290 290 290 290 290 290 290 290 290 290 289 288 287 286 285 285 284 284 283 283 282 282 282 281 280 280 279 279 279 279 278 277 276
297 300 298 296 297 298 298 298 298 298 297 298 298 298 297 295 292 291 292 290 289 289 288 287 286 286 286 286 286 286 286 286 286 286 287 286 286 286 287 287 287 286 286 286 286 286 286 286 286 286 287 287 287 287 287 287 288 288 288 288 288 289 289 289 289 290 290 290 290 290 290 290 290 290 289 288 287 286 285 284 284 283 283 283 282 282 282 281 280 279 279 279 279 279 278 277 276
Wind_Speed
3 3 5 5 4 5 2 3 1 2 2 3 4 2 4 2 1 2 4 4 2 3 2 2 2 3 2 2 6 5 4 8 6 5 4 5 5 7 25 18 7 19 34 33 30 27 23 21 17 15 12 12 12 13 13 12 13 12 12 12 11 10 9 10 10 10 9 9 9 9 9 9 8 8 8 7 7 6 6 6 6 6 5 6 5 6 6 6 6 6 5 5 5 5 5 5 5
4 5 6 5 4 4 1 3 1 3 1 6 3 4 4 2 1 4 6 5 3 3 3 3 2 2 1 1 3 2 5 7 5 3 3 4 5 12 28 17 10 23 35 33 30 27 23 21 17 15 13 13 14 14 14 13 14 12 13 12 11 10 10 11 11 11 10 10 10 10 10 9 9 9 8 8 7 7 7 6 6 6 6 6 6 6 6 7 6 6 6 6 5 5 5 5 5
4 6 5 4 4 3 1 3 1 1 2 7 4 2 2 0 5 7 8 7 6 3 4 2 1 2 1 3 3 2 6 4 3 2 3 3 1 16 29 15 14 27 34 32 30 28 24 21 17 15 13 14 15 15 15 14 14 13 14 13 12 11 11 12 11 11 11 11 11 10 10 10 10 9 9 8 8 7 7 6 6 6 6 7 7 7 7 7 7 7 7 6 6 5 5 5 5
4 6 3 3 3 4 3 2 2 3 4 5 4 4 2 4 7 8 6 6 5 2 1 1 1 2 4 6 4 1 6 5 4 6 1 7 8 18 28 15 19 30 31 31 29 27 24 21 18 16 15 15 16 15 15 15 15 14 14 14 13 12 12 12 12 12 12 11 11 11 11 10 10 10 9 8 8 7 7 7 6 7 7 7 7 7 7 7 7 7 7 7 6 6 5 5 5
4 4 1 2 2 1 3 1 2 3 6 3 2 5 4 6 6 7 6 6 4 3 2 2 2 2 2 6 2 1 6 3 4 9 4 7 10 20 27 17 24 31 30 29 27 26 23 21 19 17 16 16 17 16 16 15 15 15 15 15 14 13 13 13 12 12 12 12 11 12 11 11 11 10 10 9 8 8 7 7 7 7 7 7 7 7 7 7 7 7 8 7 7 6 5 5 5
4 4 4 5 2 1 2 2 2 3 5 3 2 5 5 6 6 7 7 6 4 5 3 2 2 2 2 4 3 5 5 1 1 9 8 6 11 22 27 20 26 31 30 28 25 25 22 21 20 17 17 17 17 16 17 16 16 16 15 15 15 14 14 14 13 13 13 12 12 12 12 11 11 11 10 10 9 8 8 7 7 7 7 7 7 7 7 7 7 7 7 7 7 7 6 5 5
3 1 4 5 1 2 2 4 4 4 4 4 3 5 6 6 4 4 7 5 2 3 2 2 1 1 4 3 2 7 7 6 2 5 8 8 13 24 28 23 27 29 29 28 25 24 22 22 20 17 17 18 18 17 18 17 17 16 16 16 15 15 14 14 14 14 13 13 13 12 13 12 12 11 11 10 10 9 9 8 8 8 8 8 8 7 8 8 7 7 7 7 7 7 6 5 5
3 0 1 3 0 3 1 3 4 4 4 3 4 5 7 7 3 2 5 2 2 3 2 3 1 2 5 1 2 6 7 13 8 4 7 10 15 25 30 26 27 29 29 28 25 23 22 22 20 18 18 18 18 18 18 18 18 17 16 16 16 15 15 14 14 14 14 14 14 13 13 13 12 12 12 11 11 10 9 9 9 9 9 8 8 8 8 8 7 7 7 7 7 7 6 5 6
4 3 1 2 0 2 2 3 4 3 4 5 4 6 7 5 4 3 5 4 3 2 4 5 4 4 4 2 6 5 4 14 14 9 9 13 18 26 31 29 29 30 29 28 26 24 23 22 20 19 19 19 19 19 18 18 18 17 17 16 16 15 15 15 14 14 14 14 14 13 13 13 13 12 12 12 11 11 11 10 10 10 10 9 9 9 8 8 7 7 7 7 7 7 6 6 6
4 3 1 1 1 3 4 4 4 3 5 5 5 8 9 3 4 5 5 6 3 2 4 3 4 6 3 3 7 4 4 11 15 15 13 15 19 27 32 31 29 30 30 29 27 25 24 23 21 20 20 19 19 19 19 18 18 18 17 16 16 15 15 14 14 14 14 14 14 13 13 13 13 13 13 13 12 12 11 12 11 11 11 10 10 9 8 8 7 7 7 7 6 6 6 6 7
3 3 1 1 2 3 5 4 5 5 6 4 5 8 7 3 3 4 4 6 4 3 4 3 3 5 1 5 6 4 5 10 17 20 17 17 21 27 31 32 30 30 30 29 28 26 25 23 22 21 20 20 20 19 19 19 19 18 17 16 16 15 15 14 14 14 14 14 14 13 13 13 13 13 13 13 13 12 12 12 12 12 12 11 11 10 9 8 7 7 7 7 6 7 7 7 7
2 3 3 1 1 3 4 4 6 7 7 5 5 5 2 5 3 4 4 5 3 3 6 5 3 3 2 5 5 5 6 12 19 19 18 19 21 26 30 32 31 30 29 28 28 26 25 24 23 22 21 20 20 20 20 20 20 19 18 17 16 16 15 15 15 15 15 14 14 14 14 13 13 13 13 13 13 13 12 13 13 13 12 12 11 10 9 8 8 7 7 7 7 7 7 6 6
2 1 4 1 3 2 2 3 5 6 7 4 5 4 0 4 4 7 4 4 4 3 8 8 3 3 2 5 4 5 6 13 17 17 18 19 21 26 30 31 31 30 30 28 28 26 26 25 23 23 22 21 21 21 21 20 20 20 19 18 17 17 16 16 15 15 15 15 14 14 14 14 14 14 14 13 13 13 13 13 13 13 12 12 11 11 9 9 8 7 7 7 7 7 6 5 3
2 3 4 2 0 1 2 3 4 3 6 5 4 3 1 3 5 5 4 5 8 5 5 6 6 1 3 4 5 5 5 9 13 18 17 18 22 25 29 30 31 31 31 30 28 26 26 25 24 24 23 22 22 22 23 22 22 21 21 20 19 18 17 17 16 16 16 15 15 15 15 15 14 14 14 14 14 13 13 13 13 13 12 12 11 11 10 9 8 8 8 8 8 7 5 3 2
3 2 4 1 1 2 2 3 3 2 5 4 3 1 2 5 4 2 5 6 8 4 1 2 6 2 3 4 4 5 6 8 8 17 16 18 21 23 26 28 29 30 31 31 29 27 26 26 26 25 24 24 24 24 24 24 23 23 23 23 21 20 19 18 18 17 17 16 16 16 16 16 15 15 15 14 14 14 14 13 13 13 12 12 11 10 10 10 9 9 8 8 7 6 6 6 4
3 4 4 1 2 2 3 3 1 2 6 5 3 1 3 7 2 2 5 5 6 2 0 3 5 3 3 7 6 4 6 5 8 16 16 18 18 20 23 24 27 29 30 31 30 29 27 28 27 27 26 25 26 26 25 25 25 25 25 24 24 23 21 20 19 18 18 18 18 17 17 17 17 17 16 15 15 15 16 16 14 13 12 12 11 11 11 10 9 9 9 8 8 9 9 8 6
3 4 2 2 2 2 4 4 3 3 6 6 5 1 2 8 2 3 2 4 5 5 3 5 4 4 6 7 6 4 5 2 10 15 16 17 17 18 19 22 24 27 31 32 32 31 29 30 29 29 28 27 27 27 27 26 26 26 26 26 25 25 24 23 21 20 20 20 20 19 19 19 20 20 18 17 16 17 19 19 15 13 12 12 12 12 12 10 10 10 9 8 10 12 11 9 7
3 4 1 3 3 3 5 6 6 3 5 7 5 1 4 8 5 3 2 1 4 6 7 6 5 9 12 15 12 5 1 4 11 17 16 15 16 16 18 22 25 28 32 33 34 33 33 32 31 31 30 29 29 28 28 27 27 27 27 27 27 27 26 26 24 22 22 22 22 21 21 22 23 23 20 19 19 20 22 20 16 14 12 12 12 12 13 11 11 11 10 10 12 13 11 9 8
3 4 1 4 5 5 6 6 5 3 6 8 7 3 4 7 4 2 4 7 5 7 10 4 6 13 14 18 17 10 6 8 14 18 17 17 18 18 20 23 26 29 32 36 38 36 35 35 34 33 32 31 30 30 29 28 29 29 29 29 28 28 28 27 27 26 25 24 24 24 24 25 25 24 22 22 22 23 23 20 17 16 13 12 13 14 15 13 12 12 12 13 14 13 10 9 8
2 3 1 6 6 5 5 6 6 7 5 8 9 2 3 6 3 1 3 8 9 8 11 5 7 12 11 13 11 10 10 11 16 18 18 20 22 23 23 24 27 32 37 39 39 39 38 37 36 36 34 33 32 32 32 31 30 30 31 31 30 30 29 29 28 28 28 27 26 26 26 27 27 26 23 23 24 24 24 21 19 17 15 14 16 17 17 16 15 15 16 16 15 12 11 10 9
1 3 4 6 3 3 7 7 7 7 4 6 7 4 6 6 2 2 2 5 10 9 9 8 10 12 11 11 7 6 10 11 14 17 18 19 22 25 27 29 33 36 38 36 37 40 41 40 39 39 37 35 35 35 35 34 33 32 33 33 32 32 31 31 30 30 30 29 29 29 28 28 28 27 25 25 26 25 25 23 21 20 19 19 21 20 18 18 18 17 17 16 14 13 12 11 10
1 3 6 5 4 3 8 6 6 6 3 5 7 6 7 2 1 4 5 4 8 9 7 6 10 10 9 10 7 4 7 9 11 14 16 18 22 25 28 30 31 31 30 32 39 43 43 43 42 41 40 39 38 38 38 37 35 35 35 34 34 34 33 33 32 32 32 31 31 31 30 30 30 29 27 26 27 27 26 24 23 22 22 23 23 20 19 18 18 18 17 16 15 14 13 12 11
1 4 3 4 5 5 6 3 3 3 3 7 6 5 3 4 5 4 7 10 11 12 11 6 8 9 9 9 8 6 8 10 10 14 18 20 22 27 30 30 30 31 30 35 41 41 41 43 43 43 42 42 42 40 40 39 39 38 37 36 36 36 35 34 35 34 34 33 32 32 32 32 32 31 29 28 29 28 28 26 25 25 24 24 23 21 20 19 19 19 18 17 16 15 14 13 12
2 4 5 4 6 6 6 4 5 4 7 11 4 4 5 5 7 3 4 13 14 14 13 10 10 10 9 8 9 10 10 10 12 19 23 24 28 33 33 32 33 32 30 37 39 37 39 42 43 44 44 44 44 43 42 42 41 41 40 39 38 37 37 36 37 36 35 35 34 34 34 33 33 32 31 30 30 30 30 28 26 26 25 24 23 21 21 20 20 19 18 18 16 16 15 14 13
4 6 5 3 4 6 6 6 8 7 7 8 2 4 9 8 3 4 11 16 13 11 10 10 9 9 9 8 11 11 10 11 12 18 21 25 30 29 27 29 29 25 30 39 36 34 39 40 41 43 45 46 45 45 44 44 43 43 42 42 41 40 39 39 38 37 37 36 36 36 35 35 35 34 34 33 32 32 31 29 28 28 26 25 24 23 22 21 21 20 19 18 17 16 15 14 13
5 5 4 4 6 7 6 6 7 7 5 3 2 6 9 6 1 4 13 15 11 8 8 9 8 10 11 9 10 9 10 11 11 15 19 23 24 21 26 29 25 27 37 39 33 36 40 37 38 42 44 46 45 45 45 46 45 45 45 44 44 42 42 41 39 39 38 38 38 38 38 37 37 36 35 34 34 34 32 31 30 29 28 26 25 24 23 22 21 20 20 19 18 17 15 14 13
4 3 4 6 8 7 4 5 6 6 4 1 3 8 8 3 0 4 10 6 6 10 11 10 8 10 11 10 9 7 9 11 13 16 15 16 17 21 28 26 25 34 37 34 35 39 37 35 39 41 42 44 44 45 46 46 46 46 46 45 45 45 44 43 41 41 40 39 39 39 39 38 38 38 37 36 35 34 34 32 31 30 29 27 26 24 23 22 21 20 20 19 17 16 15 14 13
1 2 6 7 7 5 3 4 5 6 3 1 4 8 6 3 1 6 9 5 6 9 13 12 9 9 10 10 10 7 6 11 14 13 10 12 16 21 25 25 29 34 33 36 40 37 34 37 40 41 41 41 42 44 46 46 46 46 46 45 45 46 45 44 43 43 42 42 41 40 40 39 39 39 38 37 36 35 35 34 32 31 30 28 26 24 23 22 21 20 19 18 17 16 15 14 13
1 4 4 8 9 3 3 7 5 5 4 6 6 6 6 1 5 9 9 8 9 11 11 12 10 9 9 9 9 7 6 10 10 9 12 18 21 21 24 28 29 31 34 37 36 31 35 39 39 39 39 39 41 44 45 45 46 45 45 46 46 45 44 44 44 44 44 43 42 41 40 39 40 39 39 38 37 36 35 34 33 32 30 28 26 24 23 22 21 20 19 18 17 17 16 15 14
1 4 3 5 10 4 3 6 6 5 4 8 6 4 7 6 8 8 5 9 14 15 13 12 11 9 9 8 8 8 7 8 8 10 16 20 22 23 25 29 27 28 33 32 31 33 37 36 36 37 37 40 42 44 44 44 45 45 44 45 44 44 44 44 45 45 44 43 42 42 41 40 40 40 40 38 37 36 35 35 34 33 31 28 26 25 24 23 22 22 20 20 19 18 17 15 15
2 4 3 4 5 5 6 7 6 5 3 8 7 1 7 10 13 8 4 9 12 13 14 13 12 10 10 9 8 9 8 6 8 12 15 17 21 22 24 28 27 27 30 29 32 35 35 34 35 37 37 40 41 42 43 44 45 44 43 43 42 42 42 43 43 43 43 43 42 42 41 41 41 41 40 39 38 37 36 36 35 34 31 29 27 26 25 24 23 23 22 21 19 19 17 16 16
4 4 4 4 3 6 11 6 5 5 4 7 7 2 6 10 14 9 6 9 8 9 12 11 12 12 11 11 10 11 11 10 14 20 23 22 22 21 21 24 24 25 27 30 32 32 31 32 34 35 37 38 40 41 42 42 42 41 41 41 40 41 40 41 42 42 42 42 42 42 42 41 41 41 40 39 38 38 37 37 36 34 32 30 28 27 26 25 24 23 22 22 21 20 18 17 17
4 4 3 5 3 5 9 4 4 4 4 6 6 1 6 8 11 13 12 10 9 9 11 11 13 14 13 12 12 14 15 18 23 32 39 39 36 33 26 22 20 20 23 26 28 29 30 30 30 33 35 36 37 38 38 38 38 38 38 38 38 38 39 41 41 41 41 41 41 42 42 41 41 41 41 40 39 39 38 38 37 34 33 31 29 28 28 26 25 24 23 22 21 20 19 18 17
4 4 2 4 3 4 7 5 4 7 4 5 3 2 8 10 11 14 12 12 13 12 14 15 14 14 14 13 15 17 17 19 21 29 41 45 45 47 43 35 26 21 20 22 24 26 28 28 28 30 32 34 34 34 34 34 35 34 35 35 36 37 39 40 40 40 41 41 41 42 42 41 41 41 41 41 40 40 39 38 37 35 34 32 31 30 29 27 26 25 24 23 22 20 19 18 17
4 4 3 4 3 3 5 6 5 9 7 7 4 3 10 11 11 11 11 15 16 14 14 14 15 16 16 16 16 17 17 19 20 28 40 45 47 49 49 49 45 37 30 27 24 24 26 26 26 27 29 30 30 30 29 29 30 30 31 32 33 35 37 38 38 39 40 40 41 41 41 41 41 41 41 41 41 40 40 39 38 36 35 33 32 31 30 29 27 26 24 23 22 20 19 18 16
5 5 3 5 6 5 8 8 4 6 7 9 3 4 9 12 13 11 13 15 17 17 17 16 16 17 16 17 16 17 18 17 20 31 40 44 48 49 48 50 51 50 48 47 41 33 27 24 24 23 23 24 26 26 26 26 26 27 28 29 31 35 36 36 36 38 38 39 40 40 41 41 41 41 41 41 41 41 40 40 38 37 36 34 34 33 32 31 30 28 26 24 22 20 19 17 15
4 3 3 6 5 6 9 7 5 4 4 7 2 3 8 10 11 11 13 16 20 20 19 18 16 16 16 17 18 18 17 16 23 34 40 43 46 47 46 47 50 50 51 53 51 46 41 34 28 25 23 20 20 22 24 25 26 26 26 28 33 35 34 34 35 37 38 39 39 39 40 41 40 40 41 41 41 41 41 40 39 37 37 36 36 35 34 32 30 28 26 24 22 21 20 18 16
2 2 3 5 4 7 11 6 5 4 5 6 3 7 11 8 8 11 13 18 19 17 17 18 18 17 15 17 19 18 15 16 24 31 36 41 43 44 44 44 45 44 46 49 48 47 46 45 39 33 28 23 19 18 20 21 22 23 22 24 28 29 29 30 33 35 36 37 37 38 39 39 39 40 41 41 42 42 41 41 40 39 39 38 36 35 33 32 30 29 27 25 22 21 20 18 17
1 0 0 4 4 6 10 3 2 4 3 6 6 8 11 6 8 11 15 14 12 12 14 15 16 18 17 17 17 18 18 19 21 23 29 36 39 41 42 42 41 40 42 45 46 47 46 46 44 40 35 29 24 20 19 20 20 20 20 20 20 20 22 24 27 29 31 33 35 36 37 38 39 40 41 41 42 42 42 42 41 41 40 39 37 35 34 32 31 30 29 27 23 20 19 18 18
1 1 1 4 4 3 6 2 3 7 3 5 5 4 5 5 7 10 11 9 9 11 13 14 15 15 15 15 15 17 19 19 20 20 23 30 35 37 37 38 39 40 42 43 44 45 43 43 44 42 39 37 33 26 20 19 20 22 22 22 21 21 20 20 22 24 27 29 30 32 35 37 39 40 40 41 41 42 42 42 42 41 41 40 39 37 36 34 33 32 30 29 26 20 18 18 18
3 4 3 4 6 3 6 6 8 8 2 2 5 5 2 3 6 9 6 7 12 13 15 17 16 14 13 14 15 16 16 16 18 19 19 23 29 32 34 36 38 38 39 39 40 41 40 41 43 43 41 41 41 38 32 24 20 20 21 21 22 22 22 22 21 24 25 25 28 31 33 36 37 39 40 40 41 41 42 42 42 41 40 40 40 38 38 37 36 34 32 31 30 25 21 18 17
6 4 4 4 8 8 8 8 8 6 3 2 5 5 4 1 7 8 6 10 15 14 17 19 16 16 15 15 16 15 14 14 14 16 18 20 25 30 34 36 37 37 37 38 38 39 41 42 44 45 43 43 45 45 42 36 29 24 22 22 21 20 21 22 23 25 25 25 29 31 31 33 34 37 39 40 41 41 42 42 41 41 40 40 40 39 38 37 36 35 33 32 32 29 24 19 18
6 3 4 5 8 9 9 7 4 3 4 4 2 2 5 4 6 6 6 10 15 14 17 18 15 16 15 14 14 14 14 14 13 14 16 19 24 28 30 33 34 34 35 37 38 40 42 42 43 43 42 42 43 45 44 41 36 31 26 23 23 22 22 26 27 26 25 26 28 28 29 30 31 34 37 38 40 41 41 41 41 41 40 40 40 39 38 38 37 36 35 34 32 31 27 23 21
5 4 1 9 11 8 6 2 1 2 4 4 2 4 3 4 1 3 4 8 15 15 16 16 15 15 14 13 14 15 15 14 13 14 14 17 22 24 26 29 30 31 34 37 37 38 39 39 41 41 40 40 41 43 43 40 37 34 30 26 24 23 24 28 30 29 28 27 26 26 27 28 29 31 34 36 39 40 40 41 41 40 40 39 39 39 39 39 38 37 36 34 33 32 31 28 25
7 6 5 9 7 4 1 3 3 2 2 5 5 1 1 6 2 4 5 8 14 15 13 14 13 14 14 13 15 15 15 14 14 14 14 17 21 24 25 27 28 30 32 34 34 35 36 37 38 40 40 39 39 40 40 39 37 34 32 30 27 27 26 27 29 29 29 27 26 26 25 26 28 29 32 34 37 39 39 40 40 40 40 39 39 39 39 39 38 38 37 35 34 33 32 30 28
8 7 7 5 0 2 2 4 2 2 3 4 6 1 1 6 3 6 6 8 11 11 10 11 12 13 14 13 14 15 14 13 13 14 16 20 23 25 26 26 28 29 30 32 33 34 35 35 36 37 38 38 37 38 38 37 36 34 33 32 30 30 29 29 28 27 27 25 25 25 25 26 27 28 30 32 35 37 38 39 39 40 40 40 39 39 38 37 38 39 38 37 36 34 32 32 30
7 6 7 5 3 3 2 2 3 3 3 6 6 2 1 4 3 4 5 4 5 7 8 10 12 13 13 12 12 13 13 13 13 13 16 22 26 27 29 28 29 31 31 33 34 35 35 34 35 35 35 37 37 37 37 36 35 33 31 31 31 31 30 29 28 28 28 26 24 25 25 25 26 28 29 31 33 35 36 38 38 39 40 39 38 38 38 38 39 39 39 38 36 34 33 32 32
5 5 6 7 5 3 4 4 4 4 5 7 5 2 2 4 2 2 2 2 4 6 8 10 12 13 12 11 11 11 11 12 12 12 14 19 22 25 28 29 30 32 34 36 36 35 35 34 35 35 35 36 36 37 37 35 35 33 31 31 31 31 30 28 27 28 28 27 26 26 25 24 25 26 27 30 32 33 36 37 38 38 38 38 38 39 39 39 40 39 39 38 35 34 33 33 32
6 5 6 6 5 5 5 5 3 1 7 8 4 0 1 3 2 1 1 3 5 6 8 9 9 12 13 12 11 10 9 10 11 12 13 14 16 20 24 25 27 29 32 36 37 35 34 34 35 35 35 36 35 35 35 35 34 33 32 31 31 30 30 29 28 28 28 28 28 27 26 25 25 25 26 29 31 33 35 37 37 38 38 39 39 40 40 39 39 39 39 38 36 35 34 34 35
6 4 3 4 3 5 7 5 4 4 9 8 2 1 2 2 1 3 2 5 6 5 6 8 7 10 13 11 11 10 10 11 11 12 13 12 15 20 22 22 23 26 30 35 36 35 34 33 33 33 34 35 34 33 34 34 34 33 32 31 31 30 30 29 29 29 29 29 29 28 27 26 26 27 27 28 30 32 35 37 38 38 38 38 38 38 38 38 39 40 40 39 38 36 35 35 35
3 2 3 2 2 1 4 4 4 7 11 9 4 1 4 2 2 4 4 3 4 5 5 6 5 8 11 11 12 12 12 12 11 12 13 14 20 24 23 24 24 26 31 35 35 35 34 33 34 33 34 35 34 33 33 33 33 33 32 31 31 30 30 30 30 29 29 30 30 30 29 28 27 28 28 28 28 30 33 36 37 37 37 37 37 37 37 37 38 39 40 39 38 36 35 35 35
2 3 2 3 1 3 3 5 5 5 8 7 4 2 2 0 1 3 3 2 2 5 6 7 8 10 11 11 12 11 11 12 12 13 14 17 23 26 25 24 23 26 32 35 36 36 34 34 35 34 35 35 34 33 32 32 33 33 32 32 30 30 30 31 32 32 31 31 31 31 32 30 29 29 28 27 27 28 31 34 35 37 36 36 36 36 36 37 37 39 40 39 38 36 35 35 34
2 2 3 4 3 5 2 6 3 2 5 5 3 4 1 1 3 4 4 4 5 8 10 10 10 12 13 11 10 10 11 12 13 13 13 16 23 25 25 24 22 25 31 35 36 37 36 36 35 35 36 35 34 34 33 33 33 33 33 32 30 29 29 30 31 33 33 33 32 33 33 33 31 30 28 27 26 27 29 32 34 35 35 35 36 35 36 36 37 39 41 40 39 37 36 35 34
2 3 6 4 1 4 2 3 3 4 6 5 4 9 7 3 3 3 5 9 12 13 13 13 14 15 16 14 13 12 12 12 13 14 14 17 22 26 27 26 25 29 34 35 37 36 35 35 35 36 36 35 35 34 33 34 33 34 33 32 31 30 30 29 30 32 33 34 33 33 33 34 33 32 29 27 25 26 27 30 33 34 34 35 35 35 36 36 37 39 40 40 39 38 36 34 34
2 2 4 3 2 3 2 2 4 6 8 7 6 11 9 2 2 4 8 11 13 15 15 16 18 18 17 16 15 16 16 14 14 15 13 14 21 27 31 30 29 33 37 38 38 36 35 35 35 35 35 36 36 35 34 34 33 32 33 33 32 31 30 30 30 31 32 33 34 33 33 33 34 33 30 27 25 25 26 28 31 33 34 34 35 35 37 37 38 39 39 38 37 37 35 32 32
4 3 4 3 1 3 3 2 2 4 7 8 8 11 7 1 2 4 5 7 10 12 13 14 16 17 17 15 14 15 15 14 14 15 13 13 20 27 30 30 30 33 38 40 38 37 36 35 34 34 35 36 36 36 34 34 33 32 32 33 33 32 32 31 30 31 31 32 33 32 32 33 33 32 30 28 26 25 26 28 31 33 33 34 35 35 36 36 38 39 40 39 38 37 34 29 30
4 5 5 5 2 1 3 2 1 1 5 6 7 9 6 1 2 3 5 5 7 9 11 12 14 16 16 14 14 13 14 15 15 14 14 15 20 27 29 29 28 31 36 38 37 36 36 35 34 34 34 34 34 35 35 34 35 34 33 33 33 33 32 31 31 31 31 32 32 32 32 32 32 32 30 29 27 25 26 28 30 32 33 34 35 35 35 36 38 38 39 40 38 36 33 29 28
4 3 2 3 2 3 4 5 1 2 3 6 6 8 7 1 3 4 4 4 6 10 13 15 16 16 15 14 15 15 14 15 15 15 15 15 20 26 28 28 29 32 35 36 35 34 34 34 35 35 35 34 34 35 35 35 35 35 34 34 34 32 31 31 32 32 32 32 32 32 32 32 32 33 31 29 28 27 26 28 30 32 33 34 35 35 36 37 38 39 39 39 37 34 32 30 28
Wind_Direction
36 67 99 102 112 112 68 53 73 306 74 266 255 190 264 242 291 290 283 289 298 249 224 290 202 170 149 181 207 215 201 176 177 160 215 254 316 208 179 181 197 185 180 179 182 184 189 191 195 196 196 196 192 186 180 179 179 179 178 178 177 178 179 178 173 170 168 165 166 162 161 164 163 163 160 154 154 152 149 145 141 141 136 136 135 138 139 134 128 121 115 109 105 98 90 86 82
66 104 104 99 98 114 183 56 149 300 17 272 258 171 258 330 326 246 241 240 226 258 306 295 276 300 272 239 225 267 259 212 197 189 250 291 327 188 178 188 194 180 180 179 182 186 190 192 194 194 198 201 193 185 181 181 181 181 181 180 181 182 179 176 175 174 172 172 170 166 165 166 167 166 164 162 161 158 155 153 149 148 145 145 141 142 141 135 132 126 123 119 117 110 104 97 88
95 127 123 115 79 55 86 45 168 178 223 257 270 203 259 264 242 241 236 232 231 265 308 282 268 288 231 280 253 203 263 264 223 221 288 225 196 181 179 185 184 179 180 180 184 189 193 192 191 194 202 201 190 185 184 183 183 183 183 183 183 182 181 178 177 178 176 176 174 172 172 171 172 170 170 168 166 164 162 159 155 154 150 150 146 146 147 143 138 131 129 125 125 120 112 105 93
115 125 140 134 72 24 72 47 165 142 224 252 281 268 240 205 241 258 252 255 255 256 287 192 232 235 175 240 249 239 256 275 226 192 238 206 196 182 177 173 177 179 181 183 187 191 195 193 192 200 204 196 190 188 185 184 186 186 184 186 185 183 185 183 183 182 180 180 179 177 175 176 177 175 174 173 171 169 167 164 160 159 155 154 152 151 152 153 147 135 132 130 129 125 119 111 98
130 113 94 91 101 54 100 100 123 156 225 206 277 268 247 219 245 276 273 281 265 200 186 139 255 284 175 229 201 232 237 263 242 198 214 214 196 181 175 169 175 180 182 184 189 193 195 194 197 203 199 193 192 192 190 188 188 188 187 188 188 186 187 187 187 185 185 184 182 180 180 180 180 179 179 177 177 173 171 171 165 164 160 158 157 156 155 154 146 136 134 131 129 125 122 114 101
146 105 55 67 100 145 119 237 200 226 232 161 250 261 255 237 235 275 291 292 260 200 197 162 237 321 281 252 197 216 216 142 178 197 219 214 191 183 176 171 177 182 185 186 190 193 194 195 201 200 194 193 195 195 195 192 190 191 190 190 191 190 189 189 189 188 188 186 185 183 183 183 182 183 183 181 179 177 176 173 170 167 163 162 160 161 158 152 142 136 135 130 129 124 119 117 106
145 117 35 68 55 28 132 236 230 239 252 178 213 256 272 267 226 280 309 313 278 218 202 215 199 64 260 275 258 240 214 201 160 191 219 205 189 184 180 175 178 184 187 189 192 193 194 197 199 196 194 196 197 197 198 194 193 193 193 193 193 193 192 192 192 192 190 188 188 187 186 186 186 186 186 185 182 181 179 176 173 169 166 164 163 163 158 148 139 135 133 130 127 123 119 116 108
88 50 23 88 45 5 122 263 257 218 260 235 222 244 269 272 205 238 282 279 257 241 195 251 191 177 263 346 263 255 222 220 220 224 217 205 194 185 185 180 180 185 189 192 193 194 194 197 196 195 199 199 197 198 199 197 196 194 196 196 195 197 195 195 195 195 194 192 191 189 189 189 189 190 189 188 186 184 181 179 175 171 168 164 162 160 155 145 139 134 130 129 126 122 120 117 106
55 32 80 76 185 334 336 286 277 234 261 270 262 255 267 262 186 211 254 262 262 238 225 234 179 202 287 354 253 283 269 227 222 232 221 208 199 188 189 187 186 186 189 193 195 195 195 197 194 197 202 199 198 198 200 199 197 196 197 197 198 199 199 200 198 198 197 196 195 193 193 193 193 193 193 191 190 189 185 182 177 174 168 164 161 157 154 146 142 136 130 127 126 121 118 117 102
39 25 120 60 81 315 306 283 274 261 254 256 267 263 269 251 181 216 234 267 249 205 255 206 174 227 293 307 264 284 256 221 216 225 221 211 200 192 193 194 193 189 190 194 196 196 196 198 194 199 203 199 198 200 201 199 198 197 198 199 200 201 201 203 202 202 202 201 200 199 199 198 199 197 197 195 193 192 188 184 180 177 172 168 164 160 156 149 144 138 132 126 123 119 116 111 94
34 355 84 83 38 292 269 273 283 270 272 294 280 259 259 207 173 233 220 270 242 211 261 132 197 233 259 288 264 244 222 208 213 222 219 208 201 197 197 197 197 194 194 194 196 197 197 198 196 200 203 200 201 202 202 200 200 197 198 200 201 203 203 206 206 206 206 205 205 204 204 203 204 202 201 199 196 195 191 187 183 180 176 172 168 163 159 152 147 140 135 126 120 115 111 102 88
56 337 57 104 230 243 231 259 283 285 291 305 282 268 235 157 164 257 226 259 249 260 252 186 196 176 155 278 257 262 252 223 219 225 221 207 203 202 200 199 198 199 200 198 197 198 198 199 198 201 202 201 203 203 203 202 202 199 198 200 201 203 203 206 209 210 209 209 209 208 209 208 208 206 205 203 200 198 194 191 187 183 178 175 173 169 163 157 150 142 138 130 121 115 110 98 87
117 121 85 191 204 196 240 266 281 305 301 270 255 279 114 150 211 238 208 262 248 282 261 210 159 106 211 257 277 309 281 247 231 224 220 212 208 202 201 201 201 202 203 203 201 201 201 200 202 204 202 202 205 206 205 204 204 201 200 199 201 204 204 206 209 212 212 211 213 212 213 212 211 210 208 207 204 202 198 196 192 189 184 179 177 174 168 161 155 147 142 136 128 121 120 112 99
143 145 109 232 275 107 233 278 295 306 286 260 257 294 321 219 228 210 161 278 254 212 250 207 144 113 246 252 307 308 294 284 236 220 218 209 207 200 200 202 203 204 205 207 206 206 204 202 205 207 205 203 206 208 208 207 206 205 203 200 200 203 204 206 209 213 215 214 215 215 215 214 213 211 209 209 207 205 202 200 198 195 191 185 182 179 172 164 158 151 145 138 133 133 150 168 172
139 138 90 151 315 350 224 240 277 264 266 254 258 303 290 249 204 187 192 238 263 210 234 208 154 182 210 194 260 260 307 331 218 211 209 202 202 198 200 202 204 206 207 210 210 211 209 207 208 210 210 207 208 210 209 208 209 209 206 204 201 203 205 206 209 212 216 217 217 217 217 216 215 213 211 211 209 207 205 204 203 200 197 191 186 182 174 168 161 154 150 143 148 170 203 220 226
117 112 68 8 269 309 232 216 260 278 260 238 264 351 296 279 189 230 226 195 283 291 162 218 183 221 208 190 221 261 336 354 188 199 196 195 197 197 202 204 207 209 211 213 213 215 214 212 211 212 213 211 212 212 212 211 211 212 211 209 205 205 206 207 209 211 215 218 219 218 218 219 217 214 212 212 212 210 212 217 213 203 202 196 190 185 177 174 167 157 155 156 181 210 227 234 239
69 82 72 286 228 230 220 205 215 240 267 267 299 348 254 297 295 238 235 138 263 274 242 235 220 246 232 224 248 332 5 89 174 183 181 186 192 195 204 208 211 214 215 215 215 217 217 216 215 215 215 214 216 215 215 214 214 215 214 213 211 210 209 208 210 211 213 217 220 220 220 221 221 220 216 214 214 213 222 230 222 206 204 200 192 185 180 179 173 167 162 170 205 227 237 239 241
52 84 139 252 209 210 196 195 208 203 276 282 300 245 213 289 305 288 319 267 273 286 266 245 259 260 248 255 265 291 312 174 174 175 175 182 188 195 205 209 212 216 217 218 218 218 219 219 218 218 218 217 218 218 218 217 217 218 218 217 215 214 213 212 211 211 213 216 221 222 221 223 225 226 223 218 216 218 228 237 226 209 205 201 193 191 193 187 176 173 169 185 218 234 240 239 241
85 119 178 239 205 219 202 200 218 220 275 286 288 259 206 261 285 344 300 284 308 305 279 240 249 265 261 262 258 251 232 194 184 180 179 185 190 197 206 210 213 217 218 219 219 219 221 221 220 220 220 219 219 221 220 219 220 221 222 221 219 218 217 216 215 213 214 215 220 223 224 226 228 230 228 224 223 223 230 238 229 212 206 201 196 204 209 199 186 184 187 204 227 237 239 241 247
138 131 247 243 217 246 237 219 234 236 265 292 285 271 214 250 244 298 273 288 299 274 269 257 256 270 270 269 260 236 221 203 194 189 191 196 200 202 205 208 212 218 219 220 220 220 221 222 222 222 222 221 221 222 222 222 221 222 224 224 223 222 221 221 220 217 216 216 219 223 225 228 231 232 231 229 228 230 233 237 231 217 207 202 205 216 217 209 203 203 209 220 231 236 237 242 250
139 147 206 228 196 276 259 223 242 251 232 256 276 330 293 260 181 233 241 306 299 269 253 234 248 270 274 283 285 222 209 208 202 200 203 204 207 210 211 212 215 220 220 221 222 222 222 223 223 223 222 222 223 224 224 223 222 223 225 226 226 225 224 224 223 222 221 220 220 223 226 229 233 234 233 231 231 233 235 235 232 222 211 211 218 225 224 219 218 219 223 228 231 233 236 241 249
145 219 208 209 164 261 269 233 243 247 210 251 273 295 284 283 150 223 197 234 266 268 266 222 235 262 271 284 291 234 209 217 213 211 214 212 214 217 219 220 220 223 221 222 224 224 224 223 224 223 223 223 224 226 226 226 225 225 225 226 226 226 227 226 226 226 225 224 223 224 226 230 233 234 234 232 232 234 235 234 232 227 221 222 227 230 231 229 227 227 229 230 231 233 235 240 248
242 271 267 237 192 227 269 269 255 228 249 265 260 277 304 346 301 229 190 226 244 264 281 276 263 267 269 280 283 256 231 226 221 220 218 216 218 220 222 222 222 222 221 224 227 226 225 224 224 224 224 224 226 227 228 228 228 227 228 228 227 227 227 227 228 228 228 227 227 227 227 230 232 234 235 233 233 234 235 234 233 232 229 229 231 232 233 232 231 230 231 232 233 234 236 240 246
173 254 288 255 199 220 258 290 286 272 261 259 272 330 304 284 292 333 252 250 254 266 281 288 287 287 276 269 265 257 246 236 231 231 226 222 225 226 226 223 225 224 222 228 230 227 227 228 226 225 225 226 227 227 228 229 229 230 230 229 229 229 228 229 229 229 230 230 230 230 230 231 233 234 235 235 234 234 235 234 233 233 232 232 233 233 234 233 233 232 233 234 234 236 237 240 246
165 215 268 263 216 244 283 302 291 287 263 262 294 288 267 251 260 327 277 269 272 276 288 294 299 303 286 265 262 261 256 250 246 245 239 234 235 236 236 232 230 227 228 232 231 229 232 231 228 226 227 227 227 227 228 230 230 230 230 230 231 230 230 231 232 231 231 231 231 232 232 232 233 234 235 235 234 233 234 234 233 233 233 234 234 233 233 233 233 233 234 235 236 237 238 241 245
200 206 257 275 285 292 312 303 292 297 272 276 294 265 272 260 207 285 266 267 289 308 308 303 313 308 295 284 273 261 258 256 251 253 248 244 243 243 243 238 232 230 233 236 233 234 235 231 230 231 230 229 227 227 229 231 231 230 231 231 231 231 232 233 232 233 232 232 233 233 233 233 234 235 236 236 234 234 234 233 233 233 233 234 234 233 233 233 234 234 235 235 236 237 238 241 245
198 223 268 271 294 298 305 282 289 308 272 253 310 286 288 284 94 277 268 273 333 335 315 309 314 300 295 294 287 271 260 258 254 257 258 253 243 237 242 238 231 234 236 236 236 237 236 233 234 235 233 230 228 228 230 231 231 232 232 232 232 233 233 233 233 233 234 234 234 234 234 234 235 236 236 236 235 235 234 234 234 233 233 234 233 233 233 234 235 235 237 238 238 238 239 241 245
155 315 296 295 316 285 289 316 313 336 324 353 311 288 307 6 135 241 273 320 9 336 311 314 320 305 304 303 299 292 270 268 266 263 260 254 245 238 242 238 234 237 237 237 239 238 236 236 237 237 235 231 229 230 232 231 232 233 233 233 234 235 234 233 234 234 235 235 235 234 235 235 235 235 236 236 236 235 235 234 234 233 233 233 233 234 234 235 236 236 238 239 240 240 240 242 246
89 42 336 308 350 359 338 350 340 6 358 340 331 314 338 348 223 249 286 329 349 334 317 322 327 321 319 314 310 306 294 287 276 259 252 255 256 251 250 248 242 240 241 241 242 239 238 239 239 238 235 232 232 234 233 233 234 234 234 235 236 236 234 234 235 236 237 236 235 235 236 235 235 235 235 236 236 236 235 235 234 234 235 234 234 235 234 234 235 235 235 236 237 238 240 243 247
255 39 47 326 1 358 344 355 338 13 4 348 11 330 311 282 267 282 325 358 350 336 331 336 334 332 329 327 323 316 317 308 292 281 275 271 269 263 259 259 252 248 249 247 244 243 242 240 240 239 236 235 236 236 234 234 235 235 235 236 236 236 236 236 237 238 238 237 236 235 236 236 235 236 235 235 235 234 234 235 235 235 235 235 234 235 234 234 234 234 234 235 236 238 242 245 250
327 355 42 30 12 296 320 350 351 25 357 2 39 240 284 298 303 316 37 20 360 338 332 336 334 337 339 338 339 333 334 323 312 312 306 300 290 278 271 270 264 256 254 252 249 249 246 242 241 240 239 238 238 236 235 236 236 236 236 236 237 237 237 238 238 238 238 237 237 236 237 237 236 236 235 235 235 234 234 234 235 235 235 234 234 234 233 233 234 234 235 234 235 238 241 246 252
18 8 343 357 15 294 319 344 47 40 308 1 47 242 282 293 297 316 11 15 12 340 326 335 339 341 346 346 350 345 343 350 358 358 353 344 328 308 288 282 280 271 264 261 259 256 251 247 244 243 242 241 240 238 237 237 237 236 237 238 238 238 239 239 240 240 239 239 238 238 237 237 236 236 235 235 235 234 234 235 235 235 235 233 232 232 231 232 232 233 235 235 235 237 241 246 251
9 36 324 304 339 321 320 330 59 33 311 350 36 272 285 287 298 318 337 357 10 352 339 351 352 349 354 353 356 358 354 359 4 2 358 356 353 345 328 307 293 283 276 272 268 264 259 255 250 246 246 245 244 241 239 238 237 238 238 239 239 240 240 242 242 241 240 239 239 239 238 237 237 236 235 235 235 236 236 236 236 235 234 233 231 230 231 232 232 233 233 235 237 240 243 247 250
330 19 345 280 299 306 317 314 339 19 16 329 355 238 261 274 299 313 329 356 7 3 358 2 5 4 7 8 8 9 6 4 2 357 357 359 1 1 358 351 338 317 299 286 277 270 266 262 256 253 251 249 247 244 242 240 238 239 240 241 241 242 243 244 243 242 241 240 240 239 239 238 237 236 235 235 235 237 237 236 235 234 233 232 230 230 231 231 231 232 232 234 237 240 244 248 253
286 312 317 303 299 266 284 285 316 12 2 308 323 283 275 288 302 317 346 8 13 14 14 13 16 18 17 19 17 13 11 8 1 358 1 5 5 6 8 11 10 5 356 343 322 298 283 274 265 260 255 251 248 246 244 242 239 238 239 240 241 243 244 244 242 242 241 241 240 240 239 238 237 236 235 235 235 236 235 235 234 232 231 230 229 228 228 227 227 228 229 232 235 239 245 249 255
248 261 250 275 292 280 269 262 285 2 332 296 304 295 296 308 315 337 3 17 27 23 25 25 20 22 21 19 17 13 13 7 359 3 8 11 10 10 11 14 17 20 20 16 10 358 339 316 297 284 273 259 250 246 242 239 235 235 236 236 239 242 243 243 243 243 242 242 242 241 240 239 238 236 235 235 234 234 234 235 233 231 231 229 227 225 225 225 224 224 227 229 231 235 241 245 250
234 247 243 259 270 282 283 271 270 348 343 276 260 343 298 300 321 356 20 29 33 25 25 26 20 22 20 17 15 12 12 2 1 8 11 12 12 13 15 15 16 18 19 19 18 17 13 5 348 332 319 296 269 253 244 238 232 229 231 233 239 243 243 243 244 244 244 244 244 242 241 240 238 236 236 235 234 234 234 234 233 231 230 229 228 228 228 227 226 226 227 227 229 231 235 240 243
208 223 250 283 266 266 287 285 261 3 21 284 4 11 308 310 2 23 39 40 33 23 25 24 19 22 19 16 13 8 8 3 5 9 9 10 10 11 15 17 16 16 16 17 16 15 17 17 11 2 352 335 310 284 265 254 245 238 236 240 245 247 247 247 248 249 248 247 246 244 243 241 239 238 236 235 234 234 233 233 233 232 230 229 228 228 229 228 226 225 223 221 224 228 233 237 236
154 220 220 310 300 282 292 272 224 0 2 293 3 6 314 350 60 54 49 52 45 29 29 27 21 22 16 12 9 6 8 7 6 6 6 7 7 9 12 13 13 12 13 15 14 14 14 14 14 14 12 5 348 323 297 280 272 266 263 264 266 265 262 259 258 258 256 254 251 247 245 244 243 241 238 236 235 234 233 233 233 232 231 229 226 224 224 225 224 223 222 219 218 220 227 232 230
126 277 300 300 313 338 302 288 349 330 290 272 328 329 313 16 73 63 49 51 55 40 32 34 29 25 17 9 7 8 8 5 4 3 4 5 5 7 9 9 9 10 11 11 11 11 10 10 11 13 15 15 11 360 336 307 290 284 280 278 277 278 277 274 271 266 261 257 254 250 249 248 245 242 239 237 235 235 234 234 233 232 230 228 226 222 221 222 222 221 221 220 215 209 213 222 225
304 232 204 285 312 296 260 288 324 325 313 267 324 332 334 44 51 41 25 26 39 31 25 28 25 21 15 10 11 11 8 4 2 2 1 2 3 4 5 7 8 8 9 8 8 8 6 6 8 9 10 11 12 11 5 351 327 307 297 290 284 281 280 277 273 270 263 257 256 256 255 251 247 244 242 238 237 236 236 234 233 232 230 228 225 223 222 224 224 222 222 221 217 212 209 212 215
322 256 199 272 310 292 276 306 328 346 357 322 8 3 294 6 53 31 1 21 28 22 23 22 13 12 11 10 9 6 6 5 3 2 360 360 0 1 3 5 7 6 5 4 5 6 6 5 5 7 7 7 8 9 10 8 359 342 322 308 298 291 287 281 274 272 270 267 264 262 259 255 250 247 244 241 239 237 236 235 233 231 230 228 225 224 223 223 223 223 223 220 219 220 215 206 206
331 254 203 281 305 298 302 332 355 349 302 287 52 118 259 313 41 23 3 31 27 18 22 17 8 9 8 5 3 359 1 1 360 1 360 360 359 359 0 1 2 2 1 2 3 4 5 4 3 4 4 3 4 4 6 7 5 359 344 325 310 299 291 288 286 283 282 281 277 271 265 261 256 251 247 244 241 238 237 235 233 232 230 228 226 223 221 222 224 224 224 221 220 221 215 206 206
299 226 284 309 305 298 305 359 154 247 283 310 8 143 229 291 5 12 356 34 28 19 17 11 7 5 1 0 360 358 358 355 355 357 359 359 357 357 356 355 357 357 358 1 2 1 2 2 1 1 1 0 0 0 2 2 2 0 354 343 328 316 303 298 298 294 290 288 284 278 273 268 262 257 253 248 245 241 237 235 234 232 229 228 225 223 222 223 224 224 223 223 222 220 217 215 212
271 256 298 296 292 283 219 139 193 261 350 324 311 128 241 270 254 18 12 39 25 13 8 4 3 1 357 356 356 358 357 353 353 350 351 353 352 352 350 349 351 354 357 358 358 358 358 358 358 357 358 357 356 357 358 357 357 356 355 351 342 334 325 317 313 305 298 293 286 281 276 271 266 261 257 253 249 244 239 236 234 232 229 228 225 224 223 223 222 222 221 220 219 221 223 222 216
278 291 299 283 103 85 104 124 164 28 28 279 276 239 252 274 302 6 16 37 12 355 358 357 358 358 355 354 353 355 354 351 352 347 344 345 344 345 344 345 349 351 354 354 354 354 354 354 354 354 354 352 351 353 353 353 353 351 351 349 344 340 336 331 326 320 314 305 293 286 280 273 268 262 259 255 251 247 242 237 234 233 231 228 226 224 222 221 221 222 223 222 220 221 222 222 219
303 344 328 322 31 60 55 73 99 46 331 256 255 225 208 285 309 20 29 33 341 332 348 350 355 356 352 352 349 351 351 348 346 342 339 339 339 341 341 343 346 348 350 351 351 351 349 349 349 348 348 348 347 347 347 347 348 347 345 344 342 340 338 334 330 326 324 318 305 297 290 281 273 266 261 255 251 248 244 239 235 234 232 228 225 224 223 221 221 222 223 223 222 221 221 220 219
345 6 350 342 346 12 16 360 37 32 297 268 256 188 162 267 280 82 77 22 337 344 348 342 350 353 348 349 345 345 347 342 341 339 336 335 335 337 339 340 341 344 347 348 347 345 344 343 343 341 342 343 343 342 341 340 341 342 340 340 339 337 335 334 329 325 325 322 315 307 299 289 280 271 263 256 251 248 245 241 236 233 231 227 226 225 224 223 222 222 222 220 220 220 220 219 218
12 8 17 13 350 355 351 330 350 306 268 273 273 162 207 248 257 200 191 17 358 352 348 331 337 350 346 344 342 339 339 337 338 338 334 334 332 331 332 332 335 340 343 343 341 339 337 337 336 335 334 336 337 337 336 335 334 334 334 333 334 334 333 331 329 327 324 322 319 314 304 293 284 275 266 259 255 252 247 242 236 232 231 229 227 226 225 224 222 221 220 219 218 218 219 220 220
4 8 32 38 25 351 324 304 320 298 279 285 288 160 265 278 157 198 173 45 358 323 336 322 319 346 343 337 337 336 339 340 339 337 334 331 327 323 322 323 328 335 339 339 335 332 331 330 330 328 326 328 329 329 329 328 327 328 328 327 327 329 329 327 327 326 325 323 321 316 309 298 287 278 272 268 265 258 250 244 238 235 232 230 228 226 225 224 223 222 221 219 218 220 221 221 221
322 179 144 72 66 330 290 269 284 301 296 304 334 288 261 269 150 181 169 82 4 318 325 322 320 344 341 336 339 340 341 340 336 334 330 327 325 322 321 323 327 332 335 335 331 328 327 325 324 322 320 321 322 321 321 321 320 321 321 322 322 323 324 324 323 323 324 323 321 317 312 304 293 284 279 275 270 262 252 246 240 235 233 231 229 227 224 223 224 223 222 219 219 220 220 220 221
282 156 86 9 273 184 227 245 241 278 293 296 316 282 222 148 194 192 188 187 339 326 336 348 347 349 346 342 342 339 337 335 332 330 325 326 327 325 321 321 322 327 331 331 329 327 325 322 321 318 316 317 316 316 315 315 315 314 315 316 316 317 320 322 322 321 321 321 320 318 313 309 301 291 284 278 271 263 255 247 241 236 233 231 228 226 224 223 223 221 218 217 217 218 218 218 220
321 41 345 292 201 149 204 282 288 330 292 274 301 289 275 18 274 228 236 280 329 346 352 357 347 344 345 342 340 336 332 331 327 325 322 324 326 322 318 314 313 322 328 329 327 325 323 320 318 316 314 314 313 313 312 311 311 310 310 311 311 311 313 316 318 318 318 319 318 318 316 312 307 298 289 281 272 264 256 249 243 238 233 230 228 226 224 223 222 220 217 215 215 215 216 218 219
15 346 313 295 93 104 126 287 339 350 287 275 320 301 294 314 272 263 319 331 344 349 352 352 346 346 345 340 339 335 332 327 322 321 319 322 324 321 318 315 313 321 327 327 325 322 319 317 315 314 312 312 311 311 310 309 309 308 307 308 308 307 307 309 312 314 315 315 315 317 317 313 310 303 294 285 275 265 256 250 244 239 235 230 227 225 224 224 221 218 216 215 216 214 213 216 218
40 299 318 2 350 323 6 343 323 318 290 285 308 299 293 274 257 317 336 335 340 343 349 350 346 346 343 339 339 336 334 329 324 324 321 321 322 319 317 314 314 320 325 324 322 319 316 314 313 312 310 310 310 309 308 307 306 305 305 306 308 307 306 306 308 309 311 311 311 313 313 312 311 306 297 287 277 266 256 249 244 240 236 231 228 226 225 224 220 216 213 212 213 213 212 213 216
12 18 9 19 219 264 312 322 296 295 291 296 302 297 296 199 212 292 308 314 333 342 346 346 341 340 337 335 336 333 331 327 323 320 316 314 314 312 310 307 308 317 321 320 318 316 314 312 311 309 308 309 309 309 308 307 305 304 302 304 306 307 307 306 305 306 305 305 307 307 308 309 309 306 300 289 278 267 257 249 243 238 235 231 227 225 224 222 218 214 212 210 210 211 211 211 213
11 41 21 342 325 292 298 281 124 312 295 300 295 287 287 217 187 249 266 293 334 343 340 339 338 334 329 327 329 327 322 320 317 314 312 311 309 307 305 301 303 312 315 315 314 312 311 310 310 308 307 307 306 306 306 306 305 304 303 303 305 306 307 306 305 304 303 303 303 303 305 307 305 304 302 291 279 269 258 249 242 237 234 231 227 224 222 217 213 212 211 211 210 209 210 210 211
71 72 57 324 333 40 331 306 349 54 297 287 288 288 292 268 174 224 252 296 339 345 342 340 333 325 322 326 327 322 317 315 311 309 309 308 306 306 306 304 306 310 312 311 310 309 308 308 308 308 307 306 305 305 305 304 304 304 303 304 304 304 305 305 304 303 302 302 302 303 304 304 302 303 302 293 280 270 260 250 242 237 233 231 227 224 219 214 211 211 209 209 209 208 209 210 209